Milwaukee Timmerman, WI

8:50 PM CDT on October 13, 2019 (GMT -0500)
Timmerman

Weather History for KMWC - August, 2019

Change the Weather History Date:

Monday, August 19, 2019

  Actual Average Record
Temperature  
Mean Temperature 70 °F -  
Max Temperature 80 °F 81 °F 100 °F (1983)
Min Temperature 60 °F 61 °F 32 °F (1998)
Cooling Degree Days 5    
Growing Degree Days 20 (Base 50)    
Moisture  
Dew Point 59 °F    
Average Humidity 74    
Maximum Humidity 88    
Minimum Humidity 44    
Precipitation  
Precipitation 0.00 in - - ()
Sea Level Pressure  
Sea Level Pressure 30.00 in    
Wind  
Wind Speed 2 mph (East)    
Max Wind Speed 9 mph    
Max Gust Speed -    
Visibility 10 miles    
Events      
Averages and records for this station are not official NWS values.
T = Trace of Precipitation, MM = Missing Value Source: NWS Daily Summary

Daily Weather History Graph

Daily Weather History Graph

Search for Another Location

Airport or City:

Astronomy

Aug. 19, 2019 Rise Set
Actual Time 6:01 AM CDT 7:48 PM CDT
Civil Twilight 5:31 AM CDT 8:19 PM CDT
Nautical Twilight 4:54 AM CDT 8:55 PM CDT
Astronomical Twilight 4:14 AM CDT 9:35 PM CDT
Moon 10:04 PM CDT (8/19) 9:48 AM CDT (8/19)
Length of Visible Light 14h 47m
Length of Day
13h 46m
Waning Gibbous, 85% of the Moon is Illuminated
Aug 19
Waning Gibbous
Aug 23
Last Quarter
Aug 30
New
Sep 5
First Quarter
Sep 13
Full

Hourly Weather History & Observations

Time (CDT) Temp. Heat Index Dew Point Humidity Pressure Visibility Wind Dir Wind Speed Gust Speed Precip Events Conditions
12:15 AM 64.4 °F - 59.0 °F 83% 29.93 in 10.0 mi Calm Calm - N/A   Clear
12:35 AM 64.4 °F - 59.0 °F 83% 29.93 in 10.0 mi Calm Calm - N/A   Clear
12:55 AM 62.6 °F - 59.0 °F 88% 29.93 in 10.0 mi Calm Calm - N/A   Clear
1:15 AM 62.6 °F - 59.0 °F 88% 29.94 in 10.0 mi SW 3.5 mph - N/A   Clear
1:35 AM 62.6 °F - 59.0 °F 88% 29.94 in 10.0 mi Calm Calm - N/A   Clear
1:55 AM 62.6 °F - 59.0 °F 88% 29.94 in 10.0 mi WSW 3.5 mph - N/A   Clear
2:15 AM 62.6 °F - 59.0 °F 88% 29.95 in 10.0 mi WSW 3.5 mph - N/A   Clear
2:35 AM 64.4 °F - 59.0 °F 83% 29.95 in 10.0 mi Calm Calm - N/A   Clear
2:55 AM 62.6 °F - 59.0 °F 88% 29.95 in 10.0 mi NW 5.8 mph - N/A   Clear
3:15 AM 64.4 °F - 60.8 °F 88% 29.96 in 10.0 mi West 4.6 mph - N/A   Mostly Cloudy
3:35 AM 64.4 °F - 60.8 °F 88% 29.96 in 10.0 mi Calm Calm - N/A   Overcast
3:55 AM 64.4 °F - 59.0 °F 83% 29.97 in 10.0 mi NW 3.5 mph - N/A   Scattered Clouds
4:15 AM 62.6 °F - 59.0 °F 88% 29.97 in 10.0 mi Calm Calm - N/A   Clear
4:35 AM 62.6 °F - 59.0 °F 88% 29.97 in 10.0 mi Calm Calm - N/A   Clear
4:55 AM 62.6 °F - 59.0 °F 88% 29.97 in 10.0 mi Calm Calm - N/A   Clear
5:15 AM 62.6 °F - 59.0 °F 88% 29.98 in 10.0 mi Calm Calm - N/A   Clear
5:35 AM 62.6 °F - 57.2 °F 82% 29.98 in 10.0 mi Calm Calm - N/A   Clear
5:55 AM 60.8 °F - 55.4 °F 82% 30.00 in 10.0 mi Calm Calm - N/A   Clear
6:15 AM 60.8 °F - 55.4 °F 82% 30.01 in 10.0 mi Calm Calm - N/A   Clear
6:55 AM 62.6 °F - 55.4 °F 77% 30.01 in 10.0 mi Calm Calm - N/A   Clear
7:15 AM 62.6 °F - 55.4 °F 77% 30.02 in 10.0 mi Calm Calm - N/A   Clear
7:45 AM 66.2 °F - 57.2 °F 73% 30.03 in 10.0 mi Calm Calm - N/A   Clear
8:45 AM 69.8 °F - 53.6 °F 56% 30.03 in 10.0 mi North 4.6 mph - N/A   Clear
9:45 AM 73.4 °F - 53.6 °F 50% 30.04 in 10.0 mi Calm Calm - N/A   Clear
10:45 AM 75.2 °F - 53.6 °F 47% 30.05 in 10.0 mi ENE 3.5 mph - N/A   Clear
11:45 AM 77.0 °F - 53.6 °F 44% 30.05 in 10.0 mi ENE 3.5 mph - N/A   Clear
12:45 PM 77.0 °F - 53.6 °F 44% 30.05 in 10.0 mi ENE 3.5 mph - N/A   Clear
1:45 PM 78.8 °F - 55.4 °F 44% 30.04 in 10.0 mi SE 5.8 mph - N/A   Clear
2:45 PM 80.6 °F 80.8 °F 57.2 °F 45% 30.02 in 10.0 mi SE 9.2 mph - N/A   Clear
3:45 PM 78.8 °F - 59.0 °F 51% 30.02 in 10.0 mi East 6.9 mph - N/A   Mostly Cloudy
4:45 PM 78.8 °F - 60.8 °F 54% 30.02 in 10.0 mi ESE 8.1 mph - N/A   Scattered Clouds
5:45 PM 77.0 °F - 60.8 °F 57% 30.01 in 10.0 mi East 4.6 mph - N/A   Clear
6:45 PM 77.0 °F - 64.4 °F 65% 30.01 in 10.0 mi ESE 6.9 mph - N/A   Clear
7:45 PM 75.2 °F - 62.6 °F 65% 30.01 in 10.0 mi ESE 4.6 mph - N/A   Clear
8:45 PM 73.4 °F - 62.6 °F 69% 30.01 in 10.0 mi Calm Calm - N/A   Clear
8:55 PM 71.6 °F - 62.6 °F 73% 30.02 in 10.0 mi Calm Calm - N/A   Clear
9:15 PM 69.8 °F - 62.6 °F 78% 30.02 in 10.0 mi Calm Calm - N/A   Clear
9:35 PM 69.8 °F - 62.6 °F 78% 30.03 in 10.0 mi Calm Calm - N/A   Clear
9:55 PM 69.8 °F - 60.8 °F 73% 30.03 in 10.0 mi Calm Calm - N/A   Clear
10:35 PM 69.8 °F - 62.6 °F 78% 30.04 in 10.0 mi Calm Calm - N/A   Clear
10:55 PM 68.0 °F - 62.6 °F 83% 30.04 in 10.0 mi Calm Calm - N/A   Clear
11:15 PM 68.0 °F - 60.8 °F 78% 30.04 in 10.0 mi Calm Calm - N/A   Clear
11:35 PM 66.2 °F - 60.8 °F 83% 30.04 in 10.0 mi Calm Calm - N/A   Clear
11:55 PM 64.4 °F - 60.8 °F 88% 30.04 in 10.0 mi Calm Calm - N/A   Clear